Tracking 29040 objects as of 15-Jun-2024
HD Live streaming from Space Station
objects crossing your sky now

VANGUARD 3

Track VANGUARD 3 now!
10-day predictions
VANGUARD 3 is classified as:


NORAD ID: 20
Int'l Code: 1959-007A
Perigee: 516.6 km
Apogee: 3,238.3 km
Inclination: 33.3 °
Period: 124.3 minutes
Semi major axis: 8248 km
RCS: 0.654 m2 (medium)
Launch date: September 18, 1959
Source: United States (US)
Launch site: AIR FORCE EASTERN TEST RANGE (AFETR)
Your satellite tracking list
Your tracking list is empty




NASA's NSSDC Master Catalog

Two Line Element Set (TLE):
1 00020U 59007A   24166.89736409  .00003477  00000-0  14297-2 0  9994
2 00020  33.3443  18.2706 1649843  95.4007 283.6156 11.58895236399503
Source of the keplerian elements: AFSPC